WetterOnline ( https://www.wetteronline.de )

Wetter aktuell Wallerfangen

Aktuelles Wetter: Berus (367m)

6-stündlich | Neueste Meldungen
Ortszeit Temperatur Wetter
Do, 18.04. 8:00 2.2° C leichter Regen
Do, 18.04. 2:00 1.9° C bedeckt
Mi, 17.04. 20:00 3.5° C bewölkt
Mi, 17.04. 14:00 4.6° C leichter Regen
Mi, 17.04. 8:00 3.1° C bedeckt
Mi, 17.04. 2:00 5.1° C Sprühregen
Di, 16.04. 20:00 5.1° C wolkig
Di, 16.04. 14:00 9.0° C bewölkt
Ortszeit Temperatur Wetter
Do, 18.04. 13:30 7.0° C bedeckt
Do, 18.04. 13:20 7.0° C bedeckt
Do, 18.04. 13:10 6.7° C bewölkt
Do, 18.04. 13:00 7.5° C wolkig
Do, 18.04. 12:50 7.5° C wolkig
Do, 18.04. 12:40 6.2° C bewölkt
Do, 18.04. 12:30 5.4° C Sprühregen
Do, 18.04. 12:00 6.6° C bedeckt
Do, 18.04. 11:30 6.1° C wolkig
Do, 18.04. 11:00 4.7° C bedeckt
Do, 18.04. 10:30 6.0° C bedeckt
Ortszeit Relative Feuchte Sichtweite
Do, 18.04. 8:00 96% 7 km
Do, 18.04. 2:00 95% 26 km
Mi, 17.04. 20:00 92% 50 km
Mi, 17.04. 14:00 80% 20 km
Mi, 17.04. 8:00 90% 35 km
Mi, 17.04. 2:00 95% 21 km
Di, 16.04. 20:00 92% >70 km
Di, 16.04. 14:00 77% >70 km
Ortszeit Relative Feuchte Sichtweite
Do, 18.04. 13:30 70% 65 km
Do, 18.04. 13:20 70% -
Do, 18.04. 13:10 64% -
Do, 18.04. 13:00 64% 45 km
Do, 18.04. 12:50 64% -
Do, 18.04. 12:40 76% -
Do, 18.04. 12:30 73% 40 km
Do, 18.04. 12:00 69% 35 km
Do, 18.04. 11:30 74% 35 km
Do, 18.04. 11:00 77% 40 km
Do, 18.04. 10:30 83% 28 km
Ortszeit Niederschlagsmenge Niederschlagsart
Do, 18.04. 8:00 0.6 l/m2 in 12 Std. Regen
Do, 18.04. 2:00 0.4 l/m2 in 6 Std. Regen
Mi, 17.04. 20:00 2 l/m2 in 12 Std. Regen
Mi, 17.04. 14:00 1 l/m2 in 6 Std. Regen
Mi, 17.04. 8:00 0.1 l/m2 in 12 Std. Regen
Mi, 17.04. 2:00 0.1 l/m2 in 6 Std. Regen
Di, 16.04. 20:00 6 l/m2 in 12 Std. Regen
Di, 16.04. 14:00 3 l/m2 in 6 Std. Regen
Ortszeit Niederschlagsmenge Niederschlagsart
Do, 18.04. 13:30 0.0 l/m2 in 30 Min -
Do, 18.04. 13:20 keine Meldung -
Do, 18.04. 13:10 keine Meldung -
Do, 18.04. 13:00 <0.05 l/m2 in 1 Std. Regen
Do, 18.04. 12:50 keine Meldung -
Do, 18.04. 12:40 keine Meldung -
Do, 18.04. 12:30 <0.05 l/m2 in 30 Min -
Do, 18.04. 12:00 0.0 l/m2 in 1 Std. -
Do, 18.04. 11:30 0.0 l/m2 in 30 Min -
Do, 18.04. 11:00 0.0 l/m2 in 1 Std. Regen
Do, 18.04. 10:30 0.0 l/m2 in 30 Min -
Ortszeit Stärke Spitze Richtung
km/h Bft. km/h Grad Sektor
Do, 18.04. 8:00 11 2 25 350° N
Do, 18.04. 2:00 13 3 24 330° NW
Mi, 17.04. 20:00 9 2 39 250° W
Mi, 17.04. 14:00 11 2 29 300° NW
Mi, 17.04. 8:00 14 3 29 330° NW
Mi, 17.04. 2:00 13 3 28 300° NW
Di, 16.04. 20:00 14 3 61 260° W
Di, 16.04. 14:00 24 4 63 270° W
Ortszeit Stärke Spitze Richtung
km/h Bft. km/h Grad Sektor
Do, 18.04. 13:30 14 3 29 10° N
Do, 18.04. 13:20 14 3 - 10° N
Do, 18.04. 13:10 14 3 - 20° N
Do, 18.04. 13:00 15 3 28 30° NO
Do, 18.04. 12:50 15 3 - 30° NO
Do, 18.04. 12:40 14 3 - 30° NO
Do, 18.04. 12:30 14 3 25 20° N
Do, 18.04. 12:00 11 2 29 40° NO
Do, 18.04. 11:30 14 3 29 30° NO
Do, 18.04. 11:00 14 3 29 30° NO
Do, 18.04. 10:30 13 3 26 50° NO
Ortszeit Untergrenze Bedeckung Gattung
total tief tief mittel hoch
Do, 18.04. 8:00 720 m 7/8 7/8 - - -
Do, 18.04. 2:00 1050 m 8/8 8/8 - - -
Mi, 17.04. 20:00 4500 m 7/8 7/8 - - -
Mi, 17.04. 14:00 720 m 7/8 7/8 - - -
Mi, 17.04. 8:00 4200 m 8/8 8/8 - - -
Mi, 17.04. 2:00 210 m 8/8 8/8 - - -
Di, 16.04. 20:00 780 m 8/8 1/8 - - -
Di, 16.04. 14:00 630 m 7/8 7/8 - - -
Ortszeit Bedeckungsgrad in Achtel und Wolkenuntergrenze
Do, 18.04. 13:30 4(810m) 6(960m) 8(1500m)
Do, 18.04. 13:20 4(810m) 6(960m) 8(1500m)
Do, 18.04. 13:10 7
Do, 18.04. 13:00 2(990m) 4(1440m) 6(1500m)
Do, 18.04. 12:50 2(990m) 4(1440m) 6(1500m)
Do, 18.04. 12:40 7
Do, 18.04. 12:30 4(630m) 6(840m) 8(1050m)
Do, 18.04. 12:00 7(570m) 8(1320m) 8(1500m)
Do, 18.04. 11:30 4(480m) 6(1050m) 6(1500m)
Do, 18.04. 11:00 7(450m) 7(660m) 8(1800m)
Do, 18.04. 10:30 7(330m) 8(510m)
Ortszeit Luftdruck NN (hPa) Tendenz (hPa in 3 Std.)
Do, 18.04. 8:00 1017 + 2,0
Do, 18.04. 2:00 1014 + 0,6
Mi, 17.04. 20:00 1012 + 0,2
Mi, 17.04. 14:00 1013 - 0,3
Mi, 17.04. 8:00 1013 + 1,3
Mi, 17.04. 2:00 1010 + 0,1
Di, 16.04. 20:00 1009 + 0,8
Di, 16.04. 14:00 1008 + 0,4
Ortszeit Luftdruck NN (hPa) Tendenz (hPa in 3 Std.)
Do, 18.04. 13:30 1020 + 1,7
Do, 18.04. 13:20 1020 keine Meldung
Do, 18.04. 13:10 1020 keine Meldung
Do, 18.04. 13:00 1019 + 1,9
Do, 18.04. 12:50 1019 keine Meldung
Do, 18.04. 12:40 1020 keine Meldung
Do, 18.04. 12:30 1020 + 2,3
Do, 18.04. 12:00 1019 + 2,3
Do, 18.04. 11:30 1019 + 2,3
Do, 18.04. 11:00 1019 + 2,4
Do, 18.04. 10:30 1018 + 2,5
Ortszeit Schneehöhe (cm)
Do, 18.04. 8:00 0
Do, 18.04. 2:00 0
Mi, 17.04. 20:00 0
Mi, 17.04. 14:00 0
Mi, 17.04. 8:00 0
Mi, 17.04. 2:00 0
Di, 16.04. 20:00 0
Di, 16.04. 14:00 0
Ortszeit Schneehöhe (cm)
Do, 18.04. 13:30 0
Do, 18.04. 13:20 0
Do, 18.04. 13:10 -
Do, 18.04. 13:00 0
Do, 18.04. 12:50 0
Do, 18.04. 12:40 -
Do, 18.04. 12:30 0
Do, 18.04. 12:00 0
Do, 18.04. 11:30 0
Do, 18.04. 11:00 0
Do, 18.04. 10:30 0
Link zu dieser Seite / Seite empfehlen

Das Wetter in ...